CZ-6A DEB, 54442

Orbit data source: Space-Track

CZ-6A DEB, 54442 is space debris in SSO originally from a launch on Fri, 11 Nov 2022 UTC launched from the Taiyaun Space Center, China (TSC). Debris objects in space refer to the collection of defunct objects orbiting the Earth. Examples of debris include non-operational satellites, rocket bodies, and fragments generated from explosions, collisions, or faulty payload assembly.

Loading next visibility...
Identifier
54442, 2022-151FS
Orbit
SSO
Country
Flag of CNCN / PRC
Related business
Manufacturer
SAST
Mission
Spacecraft
Bus & Motor
Unknown
Mass
Unknown
Launch date (UTC)
2022-11-11 (4 years ago)
Launch vehicle
Unknown
Launch site
Taiyaun Space Center, China (TSC)
Object type
Payload
Rocket body
Debris
Shape & HBR
Unknown shape, 0.5 m
Radar Cross Section
Medium (>0.1 m² and <1 m²)

Expand to show TLE details & history
Last TLE update: 2 days ago

TLE from 2 days ago
0 CZ-6A DEB
1 54442U 22151FS  26171.44731404  .00000211  00000-0  16341-3 0  9996
2 54442  98.8679 146.4913 0109643  49.8181 311.2521 14.00067267183831
Epoch: 2026-06-20T10:44Z
TLE epoch observation values (Epoch: 2026-06-20T10:44:07.933Z)
Latitude
0.00004°
Longitude
76.79643°
Altitude
844.363 km
Speed
7.457 km/s
True Right ascension
09h 45m 57s
True Declination
0° 00' 00"
Sunlit
Object was in daylight at epoch
Visualization orbit readout
Latitude
Unknown
Longitude
Unknown
Altitude
Unknown
Speed
Unknown
Apparent Right ascension
Unknown
Apparent Declination
Unknown
Sunlit
N/A
Visualization observer readout
Local Sidereal Time
21:58:26
Azimuth
Unknown
Elevation
Unknown
Doppler factor
Unknown
Orbital elements
Apogee altitude
970.453 km
Perigee altitude
811.056 km
Semi-major axis
7,268.892 km
Eccentricity
0.01096
Inclination
98.8679°
RAAN
146.4913°
Arg. of periapsis
49.8181°
True anomaly
310.29894°
Mean anomaly
311.2521°
Eccentric anomaly
310.77638°
Mean motion
3.5022 °/min
Orbital period
102.79 mins
BSTAR
0.00016341
Loading maneuver chart data...
Computing Atmospheric mass density...
Loading historical data...
Loading historical data...
Loading historical data...
Loading historical data...
Loading historical data...
Loading historical data...
Loading historical data...

Documentation

Showing up to 5 results
|